Flag for Canada Weather past 2 weeks in Brandon, Manitoba, Canada

Now
48 °F

Clear.


Feels Like: 46 °F
Forecast: 48 / 78 °F
Wind: 6 mph from East

Location: Brandon

Current Time: Sep 23, 2014 at 4:32:02 AM

Latest Report: Sep 23, 2014 at 4:00 AM


Visibility: 15 mi

Pressure: 29.95 "Hg

Humidity: 87%

Dew point: 45 °F

Location of BrandonLocation

Historic Weather in Brandon — Graph

°F

Brandon temperature yesterday

Maximum temperature yesterday: 79 °F (at 4:00 PM)
Minimum temperature yesterday: 39 °F (at 7:00 AM)
Average temperature yesterday: 59 °F

Past Weeks' High & Low Weather Summary

 TemperatureHumidityPressure
High79 °F (Sep 22, 4:00 PM)100% (Sep 14, 6:00 AM)30.52 "Hg (Sep 14, 6:00 AM)
Low30 °F (Sep 15, 6:00 AM)26% (Sep 22, 6:00 PM)29.47 "Hg (Sep 19, 5:00 AM)
Average51 °F74%30.07 "Hg
* Reported Sep 8 3:00 AM — Sep 23 3:00 AM, Brandon, Weather by CustomWeather, © 2014

Note: Actual official high and low records may vary slightly from our data, if they occured in-between our weather recording intervals... More about our weather records

Advertising

Brandon weather history for previous 24 hours

 ConditionsComfort  
Time TempWeatherWind HumidityBarometerVisibility
3:00 AM
Sep 23
48 °FClear.7 mph87%29.96 "Hg15 mi
2:00 AM48 °FClear.5 mph87%29.96 "Hg15 mi
1:00 AM48 °FClear.6 mph87%29.96 "Hg15 mi
12:00 AM52 °FClear.6 mph82%29.97 "Hg15 mi
11:00 PM
Sep 22
57 °FClear.8 mph67%29.98 "Hg15 mi
10:00 PM61 °FClear.7 mph63%29.98 "Hg15 mi
9:00 PM63 °FClear.7 mph59%29.98 "Hg15 mi
8:00 PM64 °FPassing clouds.5 mph56%29.98 "Hg15 mi
7:00 PM73 °FSunny.5 mph38%29.98 "Hg15 mi
6:00 PM79 °FSunny.9 mph26%29.97 "Hg15 mi
5:00 PM79 °FSunny.10 mph28%29.98 "Hg15 mi
4:00 PM79 °FPassing clouds.12 mph28%30.00 "Hg15 mi
3:00 PM77 °FPassing clouds.9 mph32%30.02 "Hg15 mi
2:00 PM75 °FPassing clouds.10 mph36%30.03 "Hg15 mi
1:00 PM72 °FSunny.7 mph50%30.06 "Hg15 mi
12:00 PM66 °FSunny.7 mph56%30.07 "Hg15 mi
11:00 AM63 °FSunny.10 mph56%30.09 "Hg15 mi
10:00 AM57 °FSunny.6 mph67%30.11 "Hg15 mi
9:00 AM50 °FSunny.3 mph88%30.11 "Hg15 mi
8:00 AM41 °FClear.7 mph100%30.13 "Hg15 mi
7:00 AM39 °FClear.5 mph100%30.13 "Hg15 mi
6:00 AM43 °FClear.5 mph93%30.12 "Hg15 mi
5:00 AM43 °FClear.7 mph93%30.11 "Hg15 mi
4:00 AM45 °FClear.9 mph87%30.11 "Hg15 mi
Weather by CustomWeather, © 2014

See weather overviewHow to use our weather pages